Wind_Speed
43 44 43 42 40 40 39 38 37 36 34 33 33 33 32 32 31 30 29 29 29 30 28 26 24 22 21 20 19 19 18 16 14 14 14 15 16 15 14 13 13 13 14 13 10 10 12 14 14 12 11 11 11 11 12 12 13 13 13 13 14 14 14 14 16 18 17 15 14 15 14 14 15 16 16 17 17 17 18 20 21 22 22 21 18
44 44 44 43 42 41 41 40 39 38 37 35 35 34 33 33 32 31 30 30 31 32 29 26 25 24 22 21 21 20 19 18 16 15 15 15 16 17 17 16 14 13 13 13 13 14 15 15 14 12 11 12 12 13 13 12 13 14 14 15 16 16 15 14 15 18 19 18 16 15 15 15 16 16 15 15 16 15 17 21 23 22 20 18 17
43 43 43 43 43 42 42 41 40 39 39 38 37 36 35 34 33 32 32 32 33 33 30 26 25 25 24 23 22 22 20 20 18 16 15 16 17 17 18 19 18 14 12 12 14 15 15 16 14 12 11 12 13 13 13 13 13 15 16 16 17 17 16 16 16 19 21 21 19 17 17 17 18 18 17 17 17 17 18 22 22 20 18 17 19
43 43 43 44 44 43 43 42 41 40 40 39 38 38 37 36 34 34 33 33 34 34 31 28 27 27 26 25 24 23 23 22 20 18 16 16 16 17 18 20 20 17 13 13 14 14 15 16 15 13 12 13 13 13 14 14 14 16 17 17 17 18 18 17 18 19 20 21 20 20 19 19 19 19 19 19 18 16 17 19 19 19 18 18 21
42 43 43 44 44 44 43 43 42 42 41 40 40 39 38 38 37 36 35 35 35 35 32 30 31 30 28 27 26 25 26 25 22 19 18 17 17 17 19 20 20 18 15 14 14 15 15 16 15 14 14 15 14 13 14 14 15 16 17 17 17 18 18 18 18 18 19 21 22 21 21 21 20 20 19 19 19 18 17 18 19 21 22 22 23
41 43 44 44 44 44 44 44 43 43 42 41 40 39 38 37 37 37 38 37 37 37 35 34 34 33 30 29 29 27 27 26 23 20 20 19 18 19 20 20 20 18 16 15 16 17 17 18 18 17 17 17 16 15 15 15 17 17 18 18 18 18 18 19 18 19 20 21 22 21 21 21 22 22 20 19 19 20 19 18 20 21 23 23 23
41 42 43 44 45 45 45 45 44 43 42 41 40 39 38 36 36 37 37 37 38 39 38 38 37 36 32 31 30 28 27 27 25 23 22 20 20 20 21 21 20 18 17 16 17 18 18 19 18 17 16 16 17 17 16 16 17 18 19 19 19 19 19 20 19 20 21 21 21 21 21 21 22 22 21 20 20 21 21 21 21 22 21 21 22
42 42 43 43 44 45 45 44 44 43 43 42 41 38 37 36 36 35 35 36 36 34 35 39 40 37 35 33 31 28 28 28 27 26 24 22 21 22 22 22 21 20 19 18 18 18 18 17 17 16 16 16 17 18 18 17 17 18 20 20 19 20 21 21 20 20 21 22 22 22 21 21 22 22 22 22 21 21 21 21 22 23 23 23 24
43 43 43 43 43 44 44 43 44 43 42 42 41 40 38 36 36 36 35 35 32 29 31 38 41 39 37 35 32 30 29 30 30 28 27 25 24 23 23 23 22 21 20 18 18 17 17 17 16 17 17 16 17 19 20 20 20 20 21 21 21 21 22 22 22 22 22 23 23 24 23 22 22 23 22 21 21 21 20 21 23 24 24 25 26
44 44 45 43 42 42 43 43 43 43 42 42 41 41 39 37 36 36 36 35 33 31 33 38 40 40 39 36 34 32 32 32 32 30 27 26 25 25 24 23 22 22 21 20 19 18 17 16 16 17 17 17 18 21 22 23 24 24 23 22 23 23 24 25 24 24 24 25 26 26 25 24 23 23 22 21 21 21 21 22 23 24 25 27 29
45 45 45 43 42 41 41 42 42 42 43 42 40 40 39 38 36 36 37 37 35 35 37 38 39 39 39 38 36 35 34 35 34 31 28 27 27 26 24 22 23 22 22 21 20 19 17 17 17 18 18 18 19 20 21 22 23 23 23 21 22 24 26 28 29 28 28 28 27 27 27 27 26 25 24 24 22 22 22 22 23 25 26 29 31
45 45 45 43 41 41 40 41 41 41 41 40 39 39 38 38 37 36 38 38 37 37 38 39 38 37 37 38 37 37 36 36 35 32 28 27 27 26 23 22 23 23 23 22 21 18 17 17 17 18 18 18 18 18 20 22 23 23 23 22 21 22 25 27 29 30 30 30 30 30 30 30 30 29 27 26 25 25 25 25 26 27 28 29 31
45 45 44 42 40 40 40 40 40 39 39 38 37 37 37 37 36 36 36 36 36 36 37 38 37 36 35 36 37 36 36 36 35 30 26 26 27 25 23 23 24 24 23 21 19 18 16 16 17 18 18 18 18 18 20 22 23 24 25 24 23 22 24 26 28 28 29 30 32 34 34 33 32 31 29 28 27 27 27 28 28 28 29 30 31
44 44 43 41 40 40 40 39 38 37 37 36 34 33 35 35 34 34 35 35 35 35 36 37 36 35 35 34 34 35 36 37 34 28 25 26 26 24 24 24 24 23 21 20 19 18 16 16 17 19 19 19 19 19 20 21 22 23 24 24 23 24 25 27 28 28 29 31 34 36 36 34 32 30 28 27 27 27 28 28 28 28 30 32 33
42 43 42 41 41 41 39 38 36 35 34 32 30 29 30 31 31 32 33 34 35 35 35 36 35 35 34 33 33 34 35 35 32 28 26 26 24 23 23 23 23 22 22 22 21 19 17 17 19 22 22 21 20 20 21 21 21 23 25 25 24 25 26 26 27 29 30 31 32 33 32 30 29 28 27 26 26 26 26 26 27 30 32 33 34
40 42 42 41 41 41 40 37 35 32 31 29 27 25 26 26 26 29 32 32 32 33 32 33 35 35 34 33 32 32 34 34 30 25 24 23 22 22 22 22 22 22 22 24 22 19 17 18 21 24 23 21 19 19 20 20 20 23 25 26 25 26 27 26 25 26 27 27 29 29 27 25 25 25 25 25 24 24 25 26 28 29 31 33 33
40 40 39 39 39 39 38 36 33 29 27 25 24 24 25 24 23 27 30 31 31 30 29 29 32 35 35 33 32 31 32 33 29 24 23 22 20 20 21 22 22 21 23 24 21 16 16 18 21 23 22 21 20 20 20 20 20 22 24 25 26 26 26 24 23 23 23 24 25 25 24 24 24 25 25 24 24 24 26 27 27 27 29 30 30
38 37 35 32 31 31 32 32 30 26 23 23 22 21 21 23 24 26 29 30 30 29 28 26 29 32 33 33 32 31 31 32 29 25 25 25 21 18 18 19 19 18 19 20 18 15 15 16 18 19 19 19 21 21 20 20 21 23 23 23 24 23 22 21 20 21 22 22 22 22 23 24 23 23 23 22 23 24 26 27 26 24 25 26 27
35 34 31 28 26 27 27 28 28 24 21 22 21 18 18 20 21 23 26 28 28 27 27 27 28 30 30 29 29 29 30 30 27 25 26 24 20 18 18 17 16 14 13 15 17 16 13 13 16 17 16 17 21 23 22 21 22 23 23 22 22 22 21 20 20 21 22 22 22 22 23 22 21 21 22 22 23 24 25 25 24 23 24 25 26
32 31 29 27 25 25 23 25 25 23 21 21 19 16 16 16 17 19 22 24 26 27 27 27 28 29 28 26 26 27 27 28 28 28 28 23 19 18 19 17 15 14 15 16 16 14 12 12 16 18 18 19 22 24 24 23 23 22 22 22 22 22 22 22 21 21 22 23 23 24 24 23 22 21 21 21 21 22 22 23 24 23 23 23 24
31 29 28 26 25 23 21 21 21 20 20 19 17 16 15 14 15 18 20 22 24 26 27 26 26 27 25 23 24 26 26 28 30 30 27 23 21 20 17 14 15 18 18 15 13 13 15 16 18 20 21 22 23 25 25 25 24 24 23 23 23 23 22 22 22 22 23 24 24 23 23 21 20 20 19 19 20 20 20 20 20 20 21 23 25
30 29 29 27 25 23 20 19 19 17 17 16 15 15 14 13 16 19 21 21 22 23 25 25 23 23 22 20 21 23 26 29 32 30 25 24 25 24 18 15 17 18 16 14 14 18 21 21 21 22 24 25 26 26 26 25 25 24 23 23 23 23 23 24 24 24 24 23 22 22 21 20 19 19 20 20 19 17 18 18 17 17 19 21 22
32 31 30 27 24 22 19 18 19 18 17 16 16 15 14 15 18 20 22 22 20 19 22 22 21 22 23 20 19 21 24 25 26 26 25 23 24 22 20 20 18 16 16 19 22 24 23 21 21 23 25 27 27 25 24 23 23 23 23 23 24 24 24 24 24 23 23 21 20 20 19 17 17 17 18 17 15 15 17 20 21 21 22 23 24
32 30 28 26 23 22 20 18 19 19 18 18 17 16 15 16 19 21 21 22 20 19 20 21 21 22 22 21 21 23 22 20 19 20 21 21 19 18 19 21 20 18 18 22 24 24 22 21 22 24 24 24 24 22 22 22 22 22 22 23 24 24 24 23 21 20 20 19 17 16 15 14 14 14 14 15 15 17 20 23 25 26 26 26 25
30 29 28 25 23 21 19 17 17 17 18 18 17 17 18 19 20 21 21 21 19 19 20 21 23 23 22 23 25 25 23 21 21 20 20 21 21 20 19 20 21 20 20 21 22 21 21 21 22 22 23 23 23 22 22 22 22 22 22 22 22 22 21 19 17 16 16 15 14 14 13 12 12 13 14 16 18 21 23 25 25 24 23 22 21
31 30 28 25 23 21 19 18 17 17 17 17 17 17 18 19 20 21 21 21 20 20 21 23 24 23 23 24 26 25 24 23 22 22 24 23 22 21 20 20 20 19 19 20 21 21 21 21 21 22 23 23 22 21 22 22 21 20 20 19 18 17 15 13 12 12 12 13 14 15 14 13 14 16 18 19 21 22 22 22 21 20 20 22 25
31 30 28 26 24 22 19 19 19 18 18 17 17 17 17 16 16 19 20 21 21 22 23 24 24 25 25 25 25 25 24 23 23 24 24 22 21 20 20 20 19 19 19 20 20 20 19 18 19 20 21 19 18 18 18 17 16 14 14 13 11 8 7 7 8 11 13 14 14 15 14 13 14 15 16 19 22 22 20 19 20 21 23 25 27
30 29 26 24 23 21 19 18 19 18 18 17 16 16 16 15 15 18 19 20 21 22 21 21 22 25 27 26 25 23 22 23 23 21 17 17 19 21 19 18 18 18 18 19 18 17 16 17 17 17 15 14 14 15 14 12 11 10 9 8 7 7 6 6 8 12 13 13 14 15 14 13 14 14 17 21 23 20 18 19 21 22 23 24 24
26 24 22 20 20 20 20 19 18 16 15 13 13 14 16 16 16 17 18 18 18 17 17 17 19 23 27 27 25 23 22 22 20 16 14 14 17 18 16 16 17 17 15 15 13 12 13 15 14 12 11 11 12 15 15 12 10 8 6 5 5 6 7 8 10 11 12 13 16 17 15 15 17 19 22 23 21 18 18 20 21 21 21 22 23
21 20 19 18 18 19 20 19 17 14 11 10 11 13 15 16 16 15 16 17 16 15 16 16 16 19 23 24 23 21 19 18 17 16 15 15 15 15 15 15 14 12 10 10 12 14 15 14 13 11 10 9 12 15 15 12 10 8 7 7 6 6 7 8 10 11 11 13 15 15 15 18 21 23 23 21 18 18 19 19 19 20 20 21 22
19 19 19 18 17 17 17 17 15 14 12 11 11 12 13 15 16 16 15 15 15 15 16 15 14 15 17 17 18 18 17 15 14 15 15 15 14 14 15 14 12 10 10 10 13 15 16 15 13 12 11 11 13 14 13 12 12 11 9 8 7 7 8 9 9 12 14 16 18 18 20 22 23 22 20 18 17 19 19 19 18 18 19 20 22
18 18 19 18 17 16 15 15 14 13 13 12 12 13 13 15 16 16 15 14 14 16 16 15 14 14 13 11 12 15 14 13 13 13 13 14 14 14 14 13 13 13 13 13 13 15 14 13 11 10 9 10 11 11 10 10 9 8 7 6 6 7 9 10 11 14 18 20 21 21 21 21 19 17 16 16 17 18 18 18 18 18 19 20 21
17 18 20 19 18 16 14 13 12 12 13 13 14 14 14 15 17 17 16 15 15 17 17 17 15 13 11 10 11 11 11 12 13 14 15 16 16 16 16 16 16 16 15 14 13 12 10 9 8 8 9 9 9 9 8 7 6 6 7 7 7 7 10 12 14 15 16 16 16 15 15 14 14 14 15 15 16 16 17 17 18 19 19 20 21
15 18 20 20 17 14 12 11 10 11 13 13 13 13 13 14 16 17 17 17 18 19 20 19 15 11 11 11 12 12 12 13 16 17 18 18 19 19 20 19 17 15 13 11 10 8 7 7 8 9 9 8 7 8 8 6 6 7 8 8 7 7 10 13 13 12 11 12 12 12 12 13 14 14 14 15 15 16 16 17 18 18 19 20 22
14 15 16 15 13 11 10 9 8 9 11 12 12 11 11 12 14 16 17 18 19 20 21 20 15 12 11 12 12 13 13 14 16 17 18 19 19 19 17 15 13 11 8 6 5 5 7 9 8 8 9 8 7 8 9 8 7 8 8 8 8 9 12 15 15 15 14 14 13 14 15 14 13 12 13 14 15 15 16 17 17 18 19 20 22
15 14 12 10 10 10 10 8 8 9 12 14 14 13 12 11 14 16 17 17 18 20 21 19 16 14 14 13 13 14 14 14 14 15 16 16 15 14 13 11 8 6 5 3 3 3 5 8 8 7 8 8 7 7 7 8 9 8 8 9 10 12 15 18 20 21 20 18 17 18 16 12 11 11 12 13 14 15 16 17 17 18 19 20 21
16 17 15 12 12 13 12 11 10 12 14 16 15 14 13 12 13 15 15 14 16 18 19 18 16 15 15 14 14 14 13 13 13 13 13 13 12 11 10 8 7 5 5 5 3 3 5 8 9 9 7 8 8 6 5 7 9 8 8 9 10 11 12 16 20 20 17 13 12 11 9 9 10 11 12 13 14 14 15 16 17 18 19 20 21
15 16 16 15 14 14 14 13 13 14 16 16 15 14 14 14 14 15 16 14 13 14 15 15 14 13 13 13 14 14 13 12 12 12 11 11 10 8 8 8 8 7 6 6 5 5 6 7 9 10 9 8 7 7 7 7 7 7 8 9 10 11 13 15 17 16 13 10 9 8 8 9 10 11 11 12 13 14 15 16 17 19 19 20 21
17 17 17 17 16 15 15 16 15 15 16 16 15 15 16 15 15 17 17 14 11 9 10 12 13 13 13 13 13 13 12 12 12 11 10 9 8 7 8 10 9 6 6 7 6 6 7 6 7 9 10 9 8 9 10 11 11 12 12 10 10 12 13 13 12 11 9 9 9 9 9 9 10 10 11 12 12 13 14 16 17 19 19 20 21
16 16 16 16 15 15 15 15 14 15 15 15 15 15 16 15 16 16 15 12 10 9 8 9 10 12 13 12 12 11 11 10 10 9 8 7 7 8 9 9 6 5 8 8 8 8 7 8 8 8 8 9 10 11 12 14 13 11 10 11 13 15 13 10 9 9 9 9 10 9 9 9 10 11 12 11 11 13 15 16 17 18 18 20 20
14 15 14 14 14 15 14 14 14 14 14 15 15 15 14 14 14 14 13 11 11 9 7 7 8 9 8 8 8 7 6 6 6 5 4 3 4 6 7 6 6 8 8 7 8 9 9 9 11 10 10 11 11 10 11 11 9 7 9 13 16 15 12 9 8 8 8 9 9 8 8 9 11 12 12 11 12 13 14 15 16 17 18 19 20
12 14 15 13 13 14 13 13 14 14 13 12 12 12 11 10 11 13 12 10 10 10 10 11 12 11 9 8 7 5 4 6 6 6 6 5 4 5 6 7 9 11 9 8 8 10 10 9 9 9 9 9 9 9 9 8 9 11 13 13 12 9 9 9 9 8 8 8 8 8 9 10 11 11 11 11 12 13 14 14 15 16 18 19 19
9 12 13 12 12 12 11 12 13 13 12 11 11 12 13 11 11 12 13 11 10 10 11 12 14 13 12 12 10 8 6 7 7 7 9 9 8 9 9 9 9 9 8 7 8 10 10 9 7 7 7 6 8 9 10 10 12 14 13 10 9 8 9 9 9 8 8 8 8 10 11 10 10 10 9 10 12 13 13 13 15 16 17 18 19
8 10 12 11 11 12 13 12 12 11 11 11 12 14 14 12 10 11 11 11 10 9 9 11 12 13 13 13 11 10 8 8 9 9 9 10 10 10 9 8 9 8 7 7 7 7 8 8 8 7 7 7 9 12 14 17 19 18 14 12 10 9 9 9 9 9 10 11 12 13 11 9 9 10 9 10 11 12 13 13 14 16 17 18 18
8 10 12 11 12 14 15 13 12 12 13 13 13 13 12 11 10 10 10 10 10 9 9 9 9 9 8 8 7 7 7 8 10 10 10 10 9 8 7 9 11 10 8 7 7 7 9 12 12 10 9 10 13 16 18 21 22 21 19 16 11 8 7 8 10 12 14 15 14 13 11 11 11 11 9 9 11 12 13 13 13 15 17 18 17
7 9 11 11 11 14 15 14 13 13 13 13 12 11 10 9 9 9 10 11 10 9 9 9 7 5 4 4 5 6 6 9 11 11 9 9 8 7 7 9 11 11 9 8 7 8 11 14 14 12 10 12 15 18 19 20 20 18 16 14 13 13 12 13 15 15 15 14 13 12 11 12 12 11 9 10 11 12 11 12 13 15 16 16 15
7 9 11 11 11 13 15 15 14 13 13 13 12 10 8 9 9 9 9 10 10 10 10 10 9 8 6 5 7 7 6 6 8 10 10 9 9 8 9 8 8 7 7 6 7 8 9 9 9 9 9 10 13 14 15 15 13 11 10 9 11 15 16 17 18 17 14 13 12 12 11 12 12 11 10 9 10 10 10 12 13 14 13 13 14
7 8 9 11 11 12 13 14 13 12 12 14 13 11 9 9 10 10 9 10 9 9 10 10 10 11 8 6 7 8 6 5 6 8 9 10 9 9 10 11 10 9 8 7 8 10 10 9 9 9 10 11 11 12 13 12 9 8 9 11 12 12 13 14 15 15 13 12 11 12 12 12 12 12 11 9 9 10 11 12 13 12 11 12 14
5 6 8 9 10 11 11 12 12 10 10 11 12 11 9 9 8 9 10 10 10 10 10 9 10 10 8 6 6 7 7 6 6 7 9 10 9 9 9 11 13 13 12 11 11 13 13 12 11 11 11 11 12 13 12 10 7 8 11 14 13 11 10 11 12 12 12 12 11 11 12 12 12 12 10 7 7 9 11 12 11 9 10 12 14
4 5 7 9 10 11 11 11 10 10 11 12 12 10 9 9 8 8 9 9 8 9 9 9 8 8 7 6 6 7 7 7 7 8 9 9 10 9 10 10 12 14 15 13 12 13 14 14 13 12 12 12 12 13 12 9 8 10 12 12 12 10 9 10 10 11 11 11 11 12 12 12 12 11 8 5 5 8 11 11 9 8 10 12 13
4 5 7 9 10 11 12 12 10 8 9 10 10 9 9 10 10 8 7 7 7 7 8 8 8 8 8 8 8 8 8 8 9 9 9 10 11 11 12 12 13 15 16 15 13 13 14 14 13 13 12 11 10 11 12 11 11 12 13 12 10 10 10 10 10 11 11 11 11 12 12 11 11 10 7 5 6 8 8 7 7 8 10 12 12
Wind_Direction
213 213 213 213 213 214 215 217 219 220 220 220 220 221 222 222 223 224 224 223 221 222 230 239 243 241 232 224 222 223 223 217 217 220 216 212 212 212 213 216 214 211 216 219 213 218 234 241 246 252 257 261 263 266 269 272 274 273 269 267 267 267 269 272 275 282 286 286 285 286 285 281 280 280 279 282 291 302 305 303 302 302 300 298 295
214 213 213 213 214 215 217 218 220 221 221 221 221 221 222 223 224 223 222 222 223 225 232 240 244 241 233 226 221 221 223 218 215 222 225 215 210 211 211 213 215 210 207 212 212 216 229 239 245 250 254 258 262 267 272 272 270 270 269 269 272 274 275 276 276 279 285 287 286 285 285 284 283 284 280 277 281 285 287 290 295 301 303 300 295
216 213 212 213 215 216 217 219 221 221 221 221 221 221 222 224 224 223 221 221 224 227 232 239 244 241 234 227 221 221 223 219 216 222 226 219 212 212 211 209 213 216 212 213 216 219 228 237 245 250 253 256 260 265 270 272 269 269 268 267 270 272 272 271 270 274 282 287 287 285 284 284 284 285 281 278 275 266 264 276 289 299 302 297 290
215 215 213 214 216 215 217 219 221 221 222 223 223 223 225 226 227 226 222 220 223 228 232 236 239 237 231 227 223 224 226 222 217 221 226 222 214 212 213 212 216 221 222 221 220 222 229 238 246 252 255 259 264 268 272 275 274 273 273 274 274 274 272 268 268 272 280 287 291 292 291 289 290 290 289 289 287 274 261 269 282 290 290 287 284
211 217 217 215 216 216 217 218 220 222 224 224 225 226 227 228 228 227 224 220 221 228 232 233 233 231 229 231 231 228 227 224 219 221 227 223 215 214 215 217 221 223 222 220 219 223 232 241 246 248 251 258 267 273 275 276 276 275 276 278 277 278 277 273 271 272 275 283 290 293 293 292 292 293 294 294 294 290 277 269 273 277 278 280 283
206 215 219 218 218 218 218 218 220 223 223 224 225 225 224 223 226 227 226 222 222 229 233 233 232 231 230 234 235 231 227 226 222 221 225 223 215 215 217 219 223 225 224 222 222 225 231 237 242 245 249 256 263 270 273 273 273 272 273 274 274 275 274 272 272 270 270 277 286 290 291 292 293 293 294 292 290 292 290 282 276 275 275 277 281
205 212 217 219 218 219 219 219 219 221 223 222 222 221 220 218 220 224 225 223 224 230 234 234 233 233 233 232 233 232 228 226 225 221 222 222 218 217 218 219 222 224 225 226 227 230 233 239 246 251 254 258 265 272 274 272 270 269 270 272 273 272 268 267 268 267 268 273 279 285 289 291 291 290 288 286 284 286 289 289 288 288 287 286 285
205 209 214 217 217 219 221 221 220 220 222 223 220 218 217 215 215 219 220 222 224 227 232 235 234 233 233 231 231 233 229 226 226 222 219 220 219 218 220 221 222 223 224 227 228 230 235 242 249 253 257 263 270 276 278 277 274 272 271 271 270 268 265 264 265 264 266 271 275 280 284 286 288 287 286 286 285 286 290 290 290 292 293 290 288
206 209 212 214 216 219 221 221 221 220 221 221 220 218 216 214 215 217 219 220 221 219 223 232 234 233 233 232 231 232 229 226 226 222 218 218 218 219 221 223 223 224 223 226 228 230 235 241 246 251 256 260 266 272 276 277 277 277 276 273 270 266 265 266 265 264 265 269 273 276 279 281 284 285 286 286 286 289 292 290 289 290 291 288 287
205 208 212 214 215 217 219 220 220 219 219 220 220 218 216 214 215 217 219 220 219 217 218 226 232 233 232 232 232 231 229 228 228 224 219 219 219 219 221 221 223 225 224 224 226 230 235 240 244 250 253 255 258 263 269 272 275 277 278 275 271 267 265 266 268 268 268 268 272 276 279 280 281 281 280 281 282 284 286 286 286 287 287 286 287
206 208 211 213 213 214 217 218 218 218 218 218 218 217 216 214 214 217 220 221 219 219 221 224 228 231 232 232 231 231 230 230 229 225 220 219 219 218 220 222 224 224 223 225 228 230 234 239 242 246 249 253 258 264 269 272 274 277 277 276 273 270 268 267 267 268 268 268 271 275 276 277 279 278 277 278 277 275 275 276 277 279 281 284 289
206 207 209 210 210 213 215 215 216 217 215 214 214 216 216 215 214 216 220 222 219 218 221 223 227 230 231 231 232 232 231 232 231 227 222 220 218 218 222 224 225 225 225 228 233 235 237 239 241 244 248 252 257 264 269 271 273 277 279 279 276 274 272 271 270 270 269 269 270 272 273 275 277 276 276 277 277 275 273 272 273 277 281 285 289
205 205 207 207 207 209 212 213 214 214 213 212 212 214 214 214 215 216 219 221 219 217 220 223 227 230 230 231 232 231 231 233 232 227 224 222 220 219 221 223 224 226 228 230 234 238 242 247 249 249 251 254 259 264 266 268 271 275 279 280 279 278 277 274 272 271 271 271 272 273 274 274 273 273 275 276 277 278 278 276 277 281 284 287 289
204 202 204 204 204 207 210 210 210 212 213 213 213 215 216 216 217 217 218 220 218 218 220 223 226 228 228 229 230 230 232 234 230 227 225 222 220 219 220 222 224 228 232 234 235 239 244 250 254 256 257 260 265 269 269 269 270 274 277 279 280 282 282 277 271 271 274 273 271 271 272 272 271 270 272 276 279 279 276 276 280 284 287 289 289
201 199 200 202 203 205 205 206 209 213 215 216 216 217 217 218 217 216 217 221 222 222 223 223 224 225 225 227 227 227 231 233 230 229 224 217 216 218 218 222 227 233 238 239 240 243 244 246 251 256 261 264 267 270 272 272 272 272 274 277 279 281 282 279 277 279 281 279 275 274 276 277 276 272 271 276 280 276 274 278 284 288 290 290 290
197 196 198 200 202 203 205 208 213 215 215 215 215 214 216 219 218 215 216 220 224 226 226 225 225 224 223 224 222 222 227 232 231 226 218 213 216 218 218 223 229 234 235 235 240 247 251 252 253 256 261 268 273 276 277 277 276 274 274 277 280 284 286 286 284 283 283 282 282 284 284 283 281 277 276 278 278 275 276 281 286 291 291 290 289
194 193 196 199 201 205 209 213 214 214 214 213 213 216 219 219 216 212 213 217 221 225 227 226 225 223 222 222 221 220 226 230 228 219 212 212 215 216 221 227 230 230 231 232 236 242 248 254 259 264 268 272 276 279 280 279 279 277 275 277 280 284 288 288 286 283 282 282 284 287 288 285 281 277 275 275 276 277 279 283 289 292 290 287 286
191 190 192 194 197 203 209 212 212 212 207 205 209 214 212 208 207 209 214 217 220 223 228 228 224 222 223 223 222 222 226 230 230 221 211 209 210 213 220 223 222 223 227 229 229 232 242 258 274 283 284 278 275 276 278 280 282 280 278 279 282 285 287 287 284 283 284 285 287 290 292 290 284 277 272 271 273 277 281 287 292 291 285 281 283
188 189 190 193 197 202 206 209 211 210 202 198 203 205 200 199 204 211 216 218 220 224 226 225 222 221 221 219 218 222 225 228 226 211 200 205 215 217 213 207 203 208 217 221 225 231 246 269 281 281 277 273 272 273 274 276 278 278 279 281 284 285 286 287 284 282 284 286 288 289 290 290 286 280 276 276 279 282 286 289 291 288 285 286 288
185 187 188 190 195 200 202 205 208 208 203 198 196 196 196 193 197 209 216 216 219 222 223 221 220 219 217 214 215 220 223 225 222 209 205 216 223 210 201 200 202 211 222 226 229 238 255 273 273 266 264 268 271 273 275 275 275 279 282 284 284 284 286 287 286 285 285 284 284 286 288 290 290 287 287 287 286 285 286 287 288 288 288 289 291
183 181 181 183 188 192 194 198 201 201 198 194 190 192 196 190 192 208 217 214 215 219 220 219 218 219 219 218 220 224 225 226 222 216 219 228 220 202 199 213 222 225 230 233 236 249 266 272 265 259 262 265 266 269 274 276 278 282 284 284 285 287 288 289 290 289 288 286 285 286 287 288 289 290 290 287 283 283 288 293 294 293 292 293 294
174 172 173 175 180 185 189 193 195 192 190 189 187 189 192 188 194 209 218 218 216 220 221 220 220 223 225 224 225 228 230 230 229 229 233 230 216 206 211 227 233 232 234 239 246 257 267 266 256 252 256 259 261 266 273 277 279 282 284 285 286 288 289 291 292 291 290 289 287 287 289 289 288 285 281 279 281 288 292 290 286 283 286 291 292
168 169 173 175 180 187 192 194 190 185 186 188 186 186 188 192 201 211 218 220 219 219 221 221 221 225 227 226 227 230 232 231 230 231 228 217 211 217 226 232 236 238 241 248 254 259 262 258 251 252 255 257 260 266 271 275 277 279 282 284 285 288 289 291 292 290 289 289 289 291 293 291 287 283 282 286 294 295 287 280 276 274 273 275 276
169 172 175 178 181 185 189 189 182 180 184 187 185 184 188 197 208 213 216 219 221 220 219 218 217 218 218 216 216 220 223 218 208 206 207 206 210 223 231 233 235 234 238 250 257 256 252 248 250 255 257 259 263 268 270 273 275 278 281 283 285 288 290 291 291 289 289 292 294 294 293 291 292 297 302 304 300 289 282 282 283 283 284 284 285
168 171 175 175 175 176 178 177 173 175 181 184 185 187 193 202 210 213 217 223 225 223 220 217 216 214 209 205 207 209 210 207 202 201 204 209 215 220 227 235 236 235 240 249 252 247 244 246 252 257 259 261 266 270 273 276 278 281 283 285 287 289 289 289 288 286 287 290 291 290 291 298 305 303 298 291 285 283 286 290 292 295 300 301 296
162 166 168 168 168 172 173 170 170 175 180 184 188 193 199 207 213 218 223 227 228 226 222 218 218 217 211 206 205 204 205 209 211 207 206 213 220 225 233 238 237 236 242 244 242 242 244 248 254 257 260 265 271 277 280 281 281 283 285 287 290 291 291 292 290 287 287 290 294 298 296 293 293 293 287 281 283 291 299 302 303 305 304 299 295
159 162 165 167 170 172 172 173 176 180 183 187 191 197 203 211 219 224 227 226 227 227 224 221 221 218 212 207 205 205 208 210 205 201 208 222 228 226 232 239 236 237 242 242 241 246 248 250 254 258 264 272 280 286 289 287 286 288 290 293 299 302 304 303 293 287 289 293 300 306 303 296 296 298 295 292 296 303 307 306 304 303 300 299 301
160 163 164 166 168 168 168 174 181 183 185 188 192 199 205 210 214 220 221 220 221 221 221 222 221 216 211 207 205 206 206 201 198 205 222 233 228 225 232 236 232 232 237 238 241 246 248 249 252 260 274 288 295 300 305 303 299 299 299 303 319 332 329 312 295 291 293 298 307 311 308 303 298 291 292 299 305 307 306 303 302 301 303 307 310
158 159 158 159 162 165 170 179 185 185 184 187 191 195 201 205 208 214 217 217 219 219 218 217 215 212 212 212 210 208 204 197 202 219 231 227 224 227 229 225 222 224 228 230 231 237 247 255 259 271 294 305 300 300 307 308 302 300 290 282 299 310 303 297 301 306 308 311 315 311 297 287 286 288 296 305 308 305 302 303 303 305 311 315 315
153 151 152 154 159 166 174 181 185 184 183 190 195 195 197 201 206 214 220 222 224 223 216 211 207 206 209 213 212 210 207 205 208 216 217 217 221 221 219 220 225 227 222 217 215 221 236 250 258 268 281 281 275 281 291 294 289 281 267 265 273 278 280 284 290 295 296 300 305 301 289 289 295 300 303 305 302 300 302 305 308 313 317 317 314
148 148 154 154 151 160 174 180 181 183 185 191 199 201 204 208 212 216 218 219 219 213 206 203 199 193 194 200 201 199 203 209 210 208 210 213 214 214 217 223 229 233 233 228 225 229 238 248 254 260 264 261 263 271 276 276 272 264 262 277 292 290 290 292 289 288 289 289 287 285 288 296 301 304 305 304 302 303 306 310 314 316 315 314 313
150 155 162 160 151 158 176 180 177 185 194 196 198 201 207 215 218 216 210 207 207 203 195 191 192 188 183 186 189 190 193 200 203 203 208 211 213 217 222 224 228 239 247 248 247 251 255 256 257 262 264 261 264 267 263 261 262 261 266 279 280 280 289 293 289 287 289 288 288 289 294 300 304 306 307 305 302 305 309 314 316 315 314 315 314
160 163 167 166 160 165 179 182 180 192 201 200 198 200 206 214 216 211 200 193 194 193 187 183 185 188 187 187 189 190 190 195 200 203 207 211 215 218 220 225 236 246 251 251 253 258 266 270 265 263 266 269 270 268 264 265 263 258 256 255 254 272 292 291 285 286 290 293 298 303 304 306 307 304 301 300 303 310 315 316 316 316 317 317 316
167 166 169 170 167 171 182 183 186 198 201 199 199 201 205 212 212 206 197 189 186 188 187 186 190 197 196 189 188 191 194 197 201 204 206 210 216 220 225 234 243 246 246 248 251 251 251 257 264 264 265 269 269 256 249 249 251 248 250 254 260 276 285 281 278 283 289 292 295 296 293 294 297 298 301 306 312 316 316 315 317 319 318 317 317
161 163 170 173 168 167 175 180 185 189 184 178 178 183 194 202 202 199 197 194 191 190 190 192 197 202 198 192 192 198 203 204 204 207 210 215 220 225 232 238 242 239 235 247 272 261 234 231 249 262 258 256 261 253 240 235 239 245 252 259 259 264 275 279 278 280 284 286 287 287 289 295 300 305 310 313 315 315 316 317 319 319 317 317 319
157 157 162 164 158 158 164 168 162 157 153 151 155 168 179 182 181 185 189 192 194 193 191 193 198 199 195 197 205 210 212 213 214 215 217 220 225 229 231 231 229 229 241 284 322 298 233 226 242 260 257 253 261 266 261 261 259 254 257 263 261 265 277 281 281 284 291 292 286 283 290 302 310 313 314 313 313 315 318 319 319 318 318 320 322
162 157 152 153 161 163 162 160 156 152 151 153 160 167 166 159 162 169 172 180 193 197 195 196 201 202 200 203 210 214 215 217 218 218 220 225 228 230 231 224 204 206 248 279 282 251 237 238 244 252 259 263 267 268 273 279 277 270 270 276 276 276 279 279 281 289 299 304 301 302 311 316 315 313 312 312 315 318 319 319 319 320 323 325 325
151 151 150 156 164 164 159 162 168 163 157 157 161 162 157 156 160 163 165 175 192 200 198 199 204 207 209 213 215 216 218 220 221 222 227 231 231 231 227 204 177 184 232 252 234 224 236 245 250 252 250 252 260 258 251 257 265 259 255 266 279 286 285 285 291 300 312 327 339 338 324 308 307 310 311 313 317 318 318 321 326 327 327 326 326
149 154 158 159 160 161 162 167 169 162 157 160 164 163 162 162 163 165 172 186 200 204 202 204 207 212 219 224 224 221 221 225 228 230 234 235 234 227 208 182 168 185 230 233 229 237 238 240 256 260 250 242 249 252 249 252 254 250 247 257 279 290 291 293 298 303 309 312 309 302 299 303 309 311 309 311 315 319 325 331 332 329 326 325 326
156 163 163 158 160 167 169 167 163 161 164 167 166 166 169 170 170 173 180 191 203 208 201 199 208 219 224 226 228 228 229 233 233 229 228 228 219 205 186 172 177 225 239 233 239 246 239 239 254 260 255 256 262 261 261 263 263 260 257 261 270 280 289 296 293 289 287 285 283 288 299 306 302 299 302 311 321 330 335 334 329 326 326 327 327
157 164 161 159 164 166 163 163 166 170 173 171 167 170 175 176 175 179 183 188 197 198 179 171 197 222 230 227 226 224 215 209 205 203 206 204 185 179 175 176 204 229 230 229 241 246 244 250 259 261 259 262 269 274 276 274 273 275 274 268 268 275 286 290 287 284 279 276 284 295 297 292 292 299 309 322 332 334 330 326 326 328 328 328 328
161 166 164 165 167 161 157 165 171 170 169 170 171 171 170 169 170 174 175 175 180 180 174 178 195 214 228 232 234 231 195 169 174 201 223 221 195 191 202 212 221 226 225 229 246 257 258 258 266 276 273 263 264 276 288 290 280 272 269 268 269 276 280 277 275 277 279 282 287 287 280 283 295 308 320 329 330 325 323 327 331 331 328 328 332
163 169 168 169 168 164 165 173 172 165 161 168 170 163 157 157 162 167 169 168 168 179 194 200 202 213 225 227 229 236 220 184 180 207 223 218 209 209 214 221 229 235 236 235 247 264 269 265 272 284 279 260 260 268 270 268 262 257 256 261 262 261 265 268 265 264 270 271 265 264 272 289 304 313 322 326 320 319 327 335 334 330 329 331 334
168 171 172 174 176 179 180 174 167 163 165 170 170 165 161 162 164 164 169 171 168 177 204 209 204 210 220 220 224 237 231 202 195 209 215 211 212 215 217 225 237 245 242 236 240 252 256 252 258 267 256 248 258 262 257 254 253 251 253 260 259 254 260 266 261 257 258 256 254 262 276 294 303 305 312 318 320 325 333 334 330 331 332 332 333
188 184 179 181 187 189 182 168 161 168 173 170 164 160 161 166 167 165 170 174 171 177 199 209 206 208 213 216 229 246 235 207 203 210 212 212 219 225 229 235 237 233 222 218 226 241 246 247 254 267 269 262 261 260 258 259 260 261 261 259 249 237 244 248 240 239 245 251 259 271 281 289 296 303 314 324 327 328 329 330 335 335 331 331 337
192 184 176 176 181 180 175 167 165 170 173 169 165 164 169 174 173 172 175 179 178 182 195 204 205 201 190 188 204 218 217 209 209 211 212 213 218 226 232 234 233 229 223 223 235 251 260 261 262 266 271 269 267 267 269 269 270 273 272 257 231 218 224 231 232 238 249 262 275 284 289 295 301 308 317 323 322 321 326 337 341 333 327 333 346
177 175 173 169 165 167 171 172 169 169 172 174 170 165 169 174 170 169 175 178 180 186 190 190 190 187 173 165 179 189 192 196 204 210 215 218 223 229 230 227 226 230 235 242 250 261 274 281 277 268 266 268 272 278 282 280 276 279 283 266 237 227 231 239 246 255 268 281 288 292 295 299 301 303 306 311 316 323 335 341 334 325 329 345 354
163 168 171 169 167 173 181 182 177 175 181 181 170 159 162 171 169 169 174 172 173 184 191 189 189 192 186 173 178 189 192 191 200 213 224 229 233 235 234 233 239 246 250 253 254 254 260 272 279 277 275 276 279 285 291 290 279 259 256 259 257 252 250 253 258 265 274 280 285 290 293 296 299 301 300 304 320 333 336 329 322 324 343 359 355
156 164 171 169 167 174 180 180 178 180 181 176 168 164 167 169 166 172 182 182 178 186 192 185 181 188 189 177 178 191 200 203 208 221 235 239 240 243 245 246 248 250 251 251 252 253 257 262 265 265 267 272 279 287 295 297 282 257 255 263 272 276 274 270 268 270 274 279 285 290 294 297 301 300 296 303 332 337 323 314 317 336 2 3 353
156 169 177 174 172 176 176 172 175 184 182 173 167 167 173 177 175 179 189 194 191 190 190 183 177 184 195 199 202 209 218 225 230 237 244 246 246 252 257 255 251 250 250 249 249 256 263 265 261 259 261 265 273 283 292 290 274 267 274 282 286 286 283 278 273 273 278 284 287 290 295 300 300 295 291 305 329 319 307 309 328 360 9 358 347
147 161 175 180 183 187 184 177 177 187 183 171 165 169 181 188 188 183 183 188 188 185 188 195 202 210 215 218 223 228 232 235 239 245 249 250 250 253 254 254 256 260 261 256 248 250 256 258 258 261 264 261 262 271 279 277 271 276 289 297 298 291 284 280 277 279 283 285 288 293 298 300 296 288 282 289 303 304 309 327 355 9 4 351 340
Height
1483 1485 1488 1492 1495 1497 1499 1501 1503 1505 1508 1510 1512 1514 1516 1518 1520 1522 1523 1524 1525 1526 1528 1530 1531 1533 1534 1535 1536 1537 1538 1540 1541 1541 1542 1543 1545 1546 1546 1546 1546 1547 1548 1549 1550 1552 1553 1554 1554 1554 1554 1554 1554 1554 1554 1555 1555 1555 1555 1554 1554 1555 1554 1554 1553 1552 1552 1552 1552 1552 1552 1551 1551 1550 1550 1549 1548 1548 1547 1546 1545 1545 1544 1543 1542
1478 1481 1485 1488 1491 1493 1495 1497 1500 1502 1504 1507 1509 1511 1513 1515 1517 1519 1520 1521 1522 1523 1525 1527 1529 1530 1531 1533 1534 1535 1536 1537 1538 1539 1540 1541 1542 1543 1545 1545 1545 1545 1546 1548 1549 1550 1551 1552 1552 1552 1552 1552 1553 1553 1553 1553 1553 1553 1553 1553 1553 1553 1553 1552 1552 1551 1550 1550 1550 1549 1549 1549 1548 1547 1547 1547 1547 1546 1545 1544 1544 1543 1542 1541 1540
1474 1478 1481 1484 1486 1489 1491 1493 1496 1499 1501 1503 1505 1508 1509 1512 1514 1515 1516 1518 1518 1520 1523 1525 1526 1526 1529 1531 1532 1532 1533 1534 1535 1536 1537 1538 1539 1540 1542 1543 1543 1543 1544 1545 1547 1548 1549 1549 1550 1550 1551 1551 1551 1551 1551 1552 1552 1552 1552 1552 1551 1551 1551 1551 1550 1549 1548 1547 1547 1547 1547 1546 1546 1545 1545 1545 1544 1544 1544 1543 1542 1541 1540 1539 1539
1471 1474 1477 1480 1482 1485 1487 1489 1492 1495 1497 1499 1502 1504 1506 1508 1510 1512 1513 1515 1515 1517 1519 1522 1523 1523 1525 1527 1529 1530 1530 1531 1532 1533 1533 1535 1536 1538 1540 1541 1541 1541 1542 1543 1544 1545 1547 1547 1548 1548 1549 1549 1549 1549 1550 1550 1550 1550 1550 1550 1549 1549 1549 1549 1548 1547 1546 1545 1545 1545 1544 1544 1543 1543 1542 1542 1541 1542 1541 1541 1540 1539 1539 1538 1537
1468 1470 1473 1476 1478 1481 1483 1485 1488 1490 1493 1495 1498 1501 1503 1504 1506 1508 1510 1511 1512 1513 1516 1518 1519 1520 1521 1523 1524 1525 1527 1528 1529 1530 1531 1532 1533 1535 1537 1538 1539 1539 1540 1541 1542 1543 1545 1545 1546 1546 1547 1547 1547 1547 1548 1548 1548 1548 1547 1547 1547 1547 1547 1546 1546 1545 1545 1543 1543 1543 1542 1541 1541 1540 1540 1539 1538 1538 1538 1538 1538 1537 1536 1536 1535
1464 1465 1468 1471 1473 1476 1479 1481 1484 1486 1489 1492 1494 1497 1499 1501 1502 1504 1506 1508 1509 1510 1512 1514 1514 1515 1518 1519 1519 1521 1523 1525 1526 1527 1528 1529 1530 1532 1534 1535 1536 1537 1538 1539 1540 1541 1543 1543 1544 1544 1544 1545 1545 1545 1545 1545 1545 1545 1545 1545 1545 1545 1545 1544 1544 1544 1543 1542 1541 1541 1540 1540 1539 1538 1538 1537 1536 1535 1535 1535 1535 1535 1534 1533 1532
1461 1462 1464 1466 1469 1472 1474 1477 1479 1482 1485 1488 1491 1493 1496 1498 1499 1500 1503 1505 1506 1507 1508 1510 1511 1512 1514 1516 1516 1518 1519 1521 1523 1524 1525 1526 1528 1529 1531 1533 1534 1535 1535 1536 1538 1539 1540 1541 1541 1541 1542 1542 1543 1543 1543 1543 1543 1543 1543 1543 1543 1543 1543 1542 1542 1542 1541 1540 1539 1538 1538 1537 1537 1536 1536 1536 1534 1533 1533 1532 1531 1531 1530 1530 1529
1458 1458 1460 1462 1465 1467 1470 1473 1476 1479 1481 1484 1487 1490 1492 1495 1496 1497 1499 1501 1503 1504 1504 1505 1507 1509 1510 1511 1513 1515 1516 1518 1519 1521 1522 1523 1525 1527 1528 1530 1531 1532 1533 1534 1535 1536 1537 1538 1539 1539 1540 1540 1541 1541 1541 1541 1541 1541 1541 1541 1541 1541 1540 1540 1540 1539 1538 1538 1537 1536 1536 1535 1535 1534 1534 1533 1532 1531 1531 1530 1528 1527 1527 1526 1526
1454 1455 1456 1458 1461 1463 1467 1470 1472 1475 1478 1481 1484 1486 1489 1492 1494 1494 1495 1497 1499 1501 1501 1501 1502 1504 1506 1507 1509 1511 1512 1514 1515 1517 1518 1520 1521 1523 1524 1526 1528 1529 1531 1532 1533 1534 1535 1536 1537 1538 1538 1538 1538 1538 1538 1539 1539 1539 1539 1539 1539 1538 1538 1538 1537 1537 1536 1535 1535 1534 1534 1533 1532 1532 1532 1531 1530 1529 1528 1528 1526 1525 1525 1524 1523
1450 1452 1453 1455 1458 1461 1463 1466 1469 1472 1475 1477 1480 1483 1486 1489 1491 1492 1492 1494 1495 1497 1496 1496 1498 1500 1501 1503 1504 1506 1507 1509 1510 1513 1515 1517 1518 1519 1521 1523 1525 1527 1529 1530 1531 1532 1533 1534 1535 1536 1536 1536 1537 1536 1536 1537 1537 1536 1536 1536 1536 1536 1536 1535 1534 1534 1534 1533 1532 1532 1531 1530 1530 1530 1529 1528 1528 1527 1526 1526 1524 1523 1522 1521 1519
1446 1448 1450 1452 1455 1458 1460 1463 1465 1468 1471 1473 1476 1479 1482 1485 1488 1489 1489 1490 1492 1492 1492 1492 1493 1495 1497 1499 1500 1502 1503 1504 1506 1509 1512 1514 1516 1517 1518 1521 1523 1524 1526 1527 1528 1529 1530 1532 1533 1534 1534 1534 1534 1534 1534 1534 1534 1534 1534 1534 1534 1534 1533 1532 1532 1531 1531 1530 1529 1529 1528 1527 1527 1527 1526 1526 1525 1524 1523 1523 1522 1520 1520 1518 1516
1442 1445 1447 1450 1453 1455 1457 1460 1462 1465 1467 1470 1473 1476 1479 1482 1484 1486 1486 1487 1488 1489 1489 1490 1491 1492 1494 1495 1497 1498 1499 1501 1503 1507 1510 1512 1513 1514 1516 1518 1520 1521 1523 1524 1525 1526 1527 1529 1530 1531 1532 1532 1532 1532 1531 1531 1531 1530 1530 1531 1531 1531 1530 1530 1529 1529 1528 1528 1527 1526 1525 1524 1524 1523 1523 1522 1521 1521 1520 1519 1518 1517 1517 1515 1513
1439 1441 1444 1447 1449 1452 1454 1456 1459 1462 1464 1467 1470 1472 1475 1478 1480 1482 1483 1484 1487 1488 1489 1490 1490 1490 1491 1492 1494 1496 1497 1498 1500 1504 1508 1510 1512 1512 1513 1515 1516 1518 1520 1521 1523 1524 1525 1526 1528 1528 1529 1529 1529 1529 1529 1528 1528 1528 1527 1527 1527 1528 1528 1527 1527 1526 1526 1525 1523 1522 1522 1521 1520 1520 1520 1519 1518 1517 1516 1516 1515 1514 1513 1512 1510
1435 1438 1441 1443 1446 1448 1451 1453 1456 1459 1461 1464 1467 1469 1472 1475 1477 1480 1481 1482 1485 1487 1488 1489 1489 1490 1490 1491 1493 1493 1494 1495 1498 1503 1507 1508 1510 1511 1512 1513 1515 1516 1518 1520 1522 1523 1524 1524 1525 1526 1526 1526 1526 1526 1526 1526 1526 1525 1524 1524 1523 1524 1524 1524 1524 1524 1523 1522 1520 1518 1517 1517 1516 1516 1516 1516 1515 1514 1513 1512 1512 1511 1510 1509 1507
1432 1435 1437 1439 1442 1445 1448 1451 1454 1456 1459 1463 1465 1467 1470 1472 1474 1477 1478 1479 1481 1483 1485 1487 1488 1488 1489 1490 1491 1491 1491 1493 1495 1500 1504 1505 1508 1510 1510 1512 1513 1516 1518 1519 1520 1522 1522 1523 1523 1523 1523 1524 1524 1523 1523 1523 1523 1522 1521 1520 1520 1519 1519 1520 1520 1520 1519 1517 1516 1514 1513 1513 1513 1512 1512 1512 1512 1511 1510 1509 1509 1508 1506 1504 1503
1428 1431 1434 1436 1439 1442 1445 1448 1452 1455 1458 1461 1463 1465 1467 1469 1471 1473 1475 1476 1477 1479 1482 1484 1485 1486 1487 1487 1488 1489 1490 1491 1493 1497 1502 1504 1506 1508 1508 1509 1510 1513 1515 1516 1517 1519 1520 1521 1521 1520 1520 1520 1520 1520 1520 1520 1520 1519 1518 1517 1516 1516 1515 1515 1516 1515 1514 1513 1512 1511 1510 1510 1509 1509 1509 1509 1508 1508 1507 1506 1506 1505 1503 1501 1499
1425 1429 1432 1434 1437 1440 1443 1447 1451 1453 1456 1458 1460 1463 1465 1466 1469 1471 1473 1474 1475 1476 1478 1480 1482 1483 1484 1485 1486 1487 1489 1490 1491 1496 1500 1501 1502 1504 1505 1505 1507 1509 1512 1513 1514 1515 1517 1517 1518 1518 1518 1518 1518 1518 1518 1517 1517 1516 1515 1514 1513 1512 1511 1511 1511 1511 1511 1510 1509 1508 1508 1507 1507 1506 1506 1506 1505 1505 1504 1503 1503 1502 1500 1498 1496
1424 1427 1431 1434 1436 1439 1442 1446 1449 1451 1453 1455 1457 1460 1462 1464 1466 1468 1470 1472 1473 1474 1476 1477 1479 1480 1481 1483 1484 1485 1487 1488 1489 1492 1495 1496 1497 1499 1501 1502 1503 1507 1509 1510 1510 1511 1513 1514 1516 1518 1517 1516 1516 1515 1515 1514 1514 1513 1512 1511 1510 1509 1508 1508 1508 1507 1506 1506 1505 1505 1504 1504 1504 1503 1503 1503 1503 1503 1501 1500 1499 1499 1497 1495 1493
1422 1426 1430 1433 1436 1438 1441 1444 1447 1449 1451 1453 1454 1456 1458 1461 1464 1466 1468 1470 1472 1473 1473 1474 1476 1477 1479 1481 1482 1482 1485 1486 1488 1489 1491 1493 1494 1496 1497 1498 1500 1504 1507 1507 1507 1508 1510 1511 1513 1515 1515 1513 1513 1512 1512 1511 1511 1510 1509 1508 1506 1506 1506 1505 1505 1504 1503 1502 1502 1502 1501 1501 1501 1501 1500 1500 1500 1499 1498 1496 1496 1495 1493 1492 1491
1420 1424 1428 1431 1434 1436 1438 1441 1444 1446 1448 1450 1452 1453 1455 1459 1462 1464 1466 1468 1470 1470 1471 1472 1473 1474 1476 1479 1479 1481 1483 1485 1487 1488 1489 1491 1493 1494 1495 1496 1498 1502 1504 1505 1505 1506 1507 1508 1510 1512 1511 1510 1509 1509 1508 1508 1507 1506 1505 1504 1503 1503 1503 1502 1502 1502 1501 1500 1499 1499 1499 1499 1498 1498 1497 1497 1496 1496 1495 1494 1493 1492 1490 1489 1488
1417 1422 1425 1428 1431 1433 1436 1439 1441 1444 1447 1449 1451 1452 1454 1457 1460 1462 1464 1466 1467 1468 1469 1471 1472 1473 1475 1477 1478 1479 1481 1483 1485 1486 1488 1490 1491 1493 1495 1496 1498 1500 1501 1502 1504 1505 1505 1506 1507 1507 1507 1507 1507 1506 1505 1504 1504 1503 1502 1501 1500 1500 1499 1499 1499 1498 1498 1497 1497 1496 1496 1495 1495 1495 1494 1494 1493 1492 1492 1491 1490 1489 1488 1486 1485
1415 1420 1423 1426 1429 1432 1435 1438 1440 1443 1445 1447 1449 1451 1453 1455 1458 1460 1462 1463 1464 1466 1468 1469 1471 1472 1474 1475 1476 1478 1480 1482 1484 1485 1487 1488 1489 1490 1493 1495 1496 1497 1499 1500 1501 1502 1502 1503 1504 1504 1504 1504 1504 1503 1502 1502 1501 1500 1498 1498 1497 1497 1496 1496 1495 1495 1494 1494 1494 1493 1493 1493 1492 1492 1492 1491 1490 1490 1489 1488 1488 1487 1486 1484 1482
1413 1417 1420 1423 1427 1430 1432 1435 1437 1440 1442 1444 1447 1449 1452 1454 1456 1458 1459 1461 1463 1465 1466 1467 1469 1471 1472 1474 1475 1476 1478 1480 1481 1483 1484 1486 1487 1489 1491 1492 1493 1494 1495 1496 1497 1498 1499 1500 1500 1500 1500 1500 1501 1500 1500 1499 1497 1496 1495 1494 1494 1494 1493 1492 1492 1491 1491 1491 1491 1490 1490 1490 1489 1489 1488 1488 1487 1487 1487 1485 1485 1484 1483 1482 1480
1410 1414 1418 1422 1424 1427 1430 1432 1435 1437 1439 1442 1443 1446 1449 1452 1454 1456 1457 1459 1461 1462 1463 1464 1466 1468 1470 1471 1472 1473 1475 1477 1478 1480 1482 1484 1486 1487 1488 1489 1489 1490 1491 1493 1494 1495 1496 1496 1496 1496 1497 1497 1497 1497 1496 1495 1493 1493 1492 1491 1491 1490 1490 1489 1489 1488 1488 1488 1488 1488 1487 1487 1487 1486 1486 1485 1485 1484 1483 1482 1481 1480 1479 1477 1476
1409 1413 1417 1420 1423 1426 1429 1432 1434 1435 1438 1440 1441 1443 1446 1450 1452 1454 1455 1456 1458 1460 1461 1463 1464 1465 1467 1468 1469 1471 1473 1475 1477 1479 1481 1482 1483 1484 1485 1486 1486 1487 1489 1491 1492 1492 1493 1493 1493 1493 1494 1494 1494 1493 1492 1491 1490 1489 1488 1488 1488 1487 1487 1486 1486 1486 1486 1485 1485 1485 1485 1485 1485 1484 1484 1483 1482 1481 1480 1479 1477 1476 1475 1474 1472
1407 1411 1415 1418 1421 1425 1427 1430 1432 1434 1437 1438 1439 1441 1445 1448 1450 1451 1453 1455 1457 1458 1460 1461 1462 1463 1464 1466 1467 1470 1472 1474 1475 1477 1479 1480 1480 1482 1483 1484 1485 1486 1487 1488 1489 1490 1490 1490 1490 1491 1491 1492 1491 1490 1488 1487 1486 1486 1485 1485 1484 1484 1484 1484 1483 1483 1483 1484 1484 1483 1483 1483 1482 1482 1481 1480 1479 1478 1477 1476 1474 1473 1472 1471 1468
1407 1411 1414 1417 1421 1424 1426 1428 1431 1434 1436 1437 1438 1441 1444 1447 1449 1450 1451 1453 1455 1456 1458 1459 1460 1461 1462 1463 1466 1469 1470 1472 1474 1475 1476 1477 1478 1479 1480 1481 1483 1484 1485 1486 1487 1487 1488 1488 1488 1489 1489 1489 1488 1486 1484 1484 1483 1483 1483 1482 1482 1482 1482 1482 1482 1482 1482 1482 1482 1481 1481 1480 1480 1479 1478 1478 1477 1476 1475 1474 1472 1470 1469 1468 1465
1408 1412 1415 1418 1421 1423 1426 1428 1431 1433 1434 1435 1437 1440 1443 1446 1447 1449 1450 1451 1452 1454 1455 1456 1457 1458 1459 1461 1464 1466 1468 1470 1471 1472 1472 1473 1474 1476 1477 1479 1480 1482 1483 1484 1485 1485 1486 1486 1486 1487 1487 1486 1484 1482 1481 1481 1480 1480 1480 1480 1480 1480 1480 1481 1481 1481 1481 1481 1480 1479 1478 1478 1477 1477 1476 1475 1474 1474 1473 1472 1470 1468 1467 1465 1463
1410 1413 1416 1419 1422 1424 1426 1428 1430 1431 1432 1434 1437 1440 1442 1444 1446 1447 1449 1450 1451 1452 1453 1454 1455 1456 1457 1460 1462 1464 1466 1468 1469 1470 1471 1472 1473 1475 1476 1477 1479 1480 1481 1482 1482 1483 1483 1483 1484 1484 1483 1482 1480 1479 1479 1479 1478 1478 1479 1479 1479 1479 1479 1480 1480 1480 1479 1479 1478 1477 1476 1476 1475 1475 1474 1473 1473 1472 1471 1469 1468 1466 1464 1463 1461
1412 1415 1417 1419 1423 1425 1426 1426 1428 1430 1431 1433 1436 1439 1441 1443 1445 1446 1448 1449 1450 1452 1452 1452 1453 1455 1457 1460 1462 1464 1465 1466 1467 1469 1470 1472 1473 1474 1476 1477 1477 1478 1479 1480 1480 1481 1481 1481 1482 1481 1481 1480 1479 1478 1478 1478 1477 1477 1478 1478 1478 1478 1478 1479 1479 1478 1478 1477 1477 1476 1475 1474 1473 1473 1472 1471 1471 1470 1469 1467 1466 1464 1462 1461 1459
1414 1416 1418 1419 1422 1424 1424 1425 1427 1429 1431 1433 1435 1437 1440 1442 1444 1446 1448 1449 1450 1451 1451 1452 1453 1455 1457 1459 1461 1463 1464 1465 1467 1468 1469 1471 1472 1473 1474 1475 1476 1477 1478 1478 1479 1480 1479 1480 1480 1479 1479 1479 1479 1478 1477 1477 1477 1477 1477 1477 1477 1477 1477 1477 1477 1477 1476 1476 1475 1475 1474 1473 1472 1471 1470 1469 1469 1468 1466 1465 1464 1463 1461 1460 1458
1415 1417 1418 1420 1421 1422 1423 1424 1427 1429 1430 1432 1435 1436 1438 1440 1442 1445 1447 1448 1449 1450 1451 1452 1454 1455 1457 1458 1460 1461 1462 1464 1466 1467 1468 1470 1471 1472 1472 1474 1475 1476 1476 1476 1477 1477 1477 1477 1477 1477 1477 1478 1477 1477 1476 1476 1475 1476 1476 1476 1476 1476 1476 1476 1476 1475 1474 1473 1473 1473 1472 1471 1470 1469 1469 1468 1467 1466 1465 1463 1462 1461 1460 1458 1457
1416 1417 1418 1419 1420 1421 1422 1425 1427 1429 1431 1432 1434 1435 1437 1439 1441 1443 1445 1446 1448 1449 1450 1452 1454 1455 1456 1458 1459 1460 1461 1463 1464 1466 1467 1469 1469 1470 1471 1472 1473 1474 1474 1474 1474 1475 1475 1475 1475 1476 1476 1476 1475 1475 1475 1475 1475 1475 1475 1475 1475 1475 1475 1475 1474 1473 1472 1472 1471 1471 1469 1469 1469 1468 1467 1466 1465 1464 1463 1462 1461 1460 1458 1457 1455
1417 1418 1419 1419 1420 1421 1423 1425 1428 1429 1431 1432 1433 1434 1436 1438 1440 1442 1444 1445 1446 1448 1450 1451 1453 1454 1455 1456 1457 1458 1460 1461 1463 1464 1466 1467 1467 1468 1469 1471 1471 1472 1472 1472 1472 1472 1472 1473 1474 1474 1474 1474 1474 1474 1474 1473 1473 1473 1473 1473 1474 1474 1474 1473 1472 1471 1471 1471 1470 1469 1468 1468 1467 1466 1466 1465 1464 1463 1462 1461 1459 1458 1457 1455 1453
1419 1420 1419 1420 1421 1422 1424 1426 1428 1429 1430 1431 1432 1434 1436 1438 1439 1441 1443 1444 1445 1447 1449 1450 1452 1453 1454 1455 1456 1457 1458 1460 1461 1462 1463 1465 1466 1467 1467 1468 1469 1469 1469 1470 1470 1470 1470 1472 1472 1472 1472 1472 1472 1471 1471 1472 1472 1472 1472 1472 1472 1473 1472 1471 1470 1469 1469 1468 1468 1467 1466 1466 1465 1465 1464 1464 1463 1462 1461 1459 1458 1457 1455 1454 1452
1420 1420 1419 1420 1422 1423 1425 1426 1428 1429 1429 1431 1433 1435 1437 1438 1439 1441 1443 1444 1445 1446 1447 1449 1450 1451 1453 1453 1454 1456 1457 1458 1459 1461 1462 1463 1464 1465 1465 1466 1466 1467 1467 1468 1468 1468 1469 1470 1470 1470 1470 1470 1470 1470 1470 1471 1471 1471 1471 1471 1471 1471 1471 1469 1468 1467 1467 1466 1465 1465 1464 1464 1464 1464 1463 1463 1462 1461 1460 1458 1457 1455 1454 1453 1451
1418 1419 1420 1421 1423 1424 1425 1426 1427 1429 1430 1432 1434 1435 1437 1438 1439 1441 1443 1444 1445 1445 1446 1448 1449 1450 1451 1452 1453 1455 1456 1457 1458 1459 1460 1461 1462 1462 1463 1464 1465 1466 1466 1466 1467 1468 1468 1469 1469 1469 1469 1469 1469 1469 1469 1469 1469 1470 1470 1470 1470 1470 1469 1467 1466 1466 1465 1465 1464 1463 1463 1463 1463 1463 1463 1462 1461 1460 1458 1457 1456 1454 1453 1451 1450
1417 1418 1420 1422 1423 1425 1426 1427 1428 1429 1431 1433 1434 1436 1437 1439 1441 1442 1443 1444 1443 1444 1446 1447 1448 1449 1450 1451 1452 1453 1455 1456 1457 1458 1459 1460 1460 1461 1462 1463 1464 1465 1466 1466 1466 1467 1467 1467 1467 1467 1468 1468 1468 1468 1468 1468 1468 1468 1468 1468 1468 1468 1466 1465 1464 1464 1464 1463 1463 1463 1463 1463 1463 1462 1461 1460 1460 1458 1457 1456 1454 1453 1451 1450 1449
1417 1418 1420 1421 1423 1425 1426 1428 1429 1430 1432 1433 1435 1436 1438 1439 1441 1442 1443 1443 1443 1444 1445 1446 1447 1448 1449 1450 1451 1452 1453 1454 1455 1456 1457 1458 1458 1459 1460 1462 1463 1464 1465 1465 1465 1465 1466 1466 1466 1466 1466 1467 1467 1466 1466 1466 1466 1466 1466 1466 1466 1466 1465 1464 1463 1463 1463 1463 1463 1462 1462 1462 1462 1461 1460 1459 1458 1457 1456 1454 1453 1452 1451 1449 1447
1417 1418 1420 1422 1423 1426 1427 1428 1430 1431 1432 1433 1435 1436 1437 1438 1440 1440 1441 1442 1442 1443 1444 1445 1446 1447 1448 1449 1450 1451 1452 1453 1454 1455 1456 1456 1457 1458 1459 1460 1462 1463 1463 1464 1464 1464 1465 1465 1465 1465 1465 1465 1465 1465 1465 1465 1465 1464 1465 1465 1464 1463 1463 1462 1463 1463 1463 1463 1462 1462 1461 1461 1460 1460 1459 1458 1457 1456 1455 1454 1453 1451 1450 1448 1446
1417 1418 1420 1422 1424 1426 1427 1429 1430 1431 1432 1433 1434 1435 1436 1437 1438 1439 1440 1441 1442 1443 1444 1445 1446 1446 1447 1448 1449 1450 1451 1452 1453 1454 1455 1456 1456 1457 1458 1460 1461 1462 1462 1463 1463 1463 1463 1463 1464 1464 1464 1464 1464 1463 1463 1463 1463 1463 1463 1463 1462 1462 1462 1462 1462 1462 1462 1461 1461 1461 1460 1460 1459 1458 1457 1457 1456 1455 1454 1453 1452 1450 1449 1447 1445
1418 1419 1421 1423 1425 1426 1428 1429 1429 1431 1432 1433 1433 1434 1435 1436 1437 1439 1440 1441 1442 1443 1443 1444 1445 1446 1447 1448 1449 1450 1451 1452 1453 1454 1455 1455 1456 1457 1458 1459 1460 1460 1461 1462 1462 1462 1462 1462 1463 1462 1462 1462 1462 1462 1462 1462 1462 1462 1461 1461 1461 1461 1462 1462 1461 1461 1461 1461 1460 1460 1459 1458 1458 1457 1456 1456 1455 1454 1453 1452 1451 1450 1448 1446 1444
1419 1421 1422 1424 1425 1426 1427 1428 1429 1430 1431 1432 1433 1434 1435 1436 1438 1439 1439 1441 1442 1442 1442 1443 1444 1445 1446 1447 1448 1449 1450 1451 1453 1454 1455 1456 1456 1457 1458 1458 1459 1459 1460 1461 1461 1461 1461 1461 1461 1462 1461 1461 1461 1461 1461 1460 1460 1459 1459 1460 1460 1460 1460 1460 1460 1460 1460 1459 1458 1458 1457 1457 1456 1456 1455 1455 1454 1453 1452 1451 1450 1449 1447 1445 1444
1420 1422 1423 1424 1425 1426 1426 1427 1428 1429 1430 1431 1432 1433 1435 1436 1437 1438 1439 1440 1441 1442 1442 1442 1443 1445 1445 1446 1447 1448 1449 1450 1452 1453 1454 1455 1455 1456 1457 1457 1458 1458 1459 1459 1460 1460 1460 1460 1460 1461 1460 1460 1459 1459 1459 1458 1458 1457 1458 1458 1458 1459 1459 1459 1459 1459 1458 1457 1456 1456 1456 1456 1455 1455 1454 1454 1453 1452 1451 1450 1449 1448 1446 1445 1443
1420 1421 1422 1423 1424 1424 1425 1426 1427 1428 1429 1430 1432 1433 1434 1436 1436 1437 1438 1439 1441 1441 1441 1441 1443 1444 1445 1445 1447 1447 1448 1449 1451 1452 1452 1453 1454 1455 1455 1456 1456 1457 1458 1458 1458 1458 1458 1458 1458 1458 1458 1458 1458 1457 1457 1456 1456 1456 1456 1456 1456 1457 1457 1457 1457 1456 1455 1455 1455 1455 1455 1454 1454 1453 1453 1452 1452 1451 1450 1449 1448 1447 1446 1444 1442
1420 1420 1421 1422 1422 1423 1424 1425 1426 1427 1429 1430 1432 1433 1434 1435 1435 1436 1437 1438 1440 1441 1441 1441 1442 1443 1444 1446 1447 1447 1448 1449 1450 1451 1452 1453 1453 1454 1455 1454 1454 1454 1455 1456 1456 1456 1456 1456 1456 1457 1457 1457 1457 1456 1455 1454 1453 1453 1453 1453 1454 1454 1454 1454 1453 1453 1453 1454 1454 1454 1454 1453 1453 1452 1452 1451 1451 1450 1449 1448 1448 1447 1445 1443 1441
1419 1420 1421 1421 1422 1423 1424 1425 1426 1427 1429 1430 1431 1432 1433 1434 1434 1435 1437 1437 1439 1440 1441 1441 1442 1443 1444 1445 1446 1446 1447 1448 1449 1450 1451 1452 1452 1453 1454 1454 1453 1452 1452 1454 1455 1455 1455 1455 1455 1456 1457 1456 1455 1454 1453 1452 1452 1452 1451 1451 1451 1452 1452 1452 1452 1452 1453 1453 1453 1453 1452 1452 1451 1451 1450 1450 1449 1449 1448 1448 1447 1446 1444 1443 1441
1419 1420 1421 1421 1422 1423 1423 1424 1426 1427 1428 1428 1429 1431 1432 1432 1433 1435 1436 1437 1438 1439 1440 1441 1441 1442 1443 1444 1444 1445 1446 1447 1448 1449 1450 1451 1452 1452 1453 1453 1452 1451 1451 1452 1454 1454 1454 1455 1455 1455 1456 1455 1454 1453 1452 1451 1451 1451 1450 1449 1450 1450 1451 1451 1451 1451 1452 1452 1452 1451 1451 1451 1450 1449 1449 1448 1448 1448 1448 1447 1446 1445 1443 1442 1441
1419 1420 1420 1421 1422 1422 1423 1424 1426 1427 1427 1428 1429 1430 1431 1432 1433 1434 1435 1436 1437 1438 1439 1440 1441 1441 1442 1443 1444 1444 1445 1446 1447 1448 1449 1450 1451 1451 1451 1451 1451 1451 1451 1452 1452 1452 1452 1453 1454 1454 1454 1454 1453 1452 1451 1451 1450 1450 1449 1449 1449 1450 1450 1450 1450 1450 1450 1450 1450 1450 1449 1449 1448 1448 1448 1447 1447 1447 1447 1446 1445 1444 1443 1442 1441
1419 1419 1420 1420 1421 1422 1423 1424 1425 1426 1426 1427 1428 1429 1431 1432 1433 1434 1434 1435 1436 1438 1438 1439 1440 1441 1442 1443 1443 1444 1445 1445 1447 1447 1448 1449 1449 1450 1450 1450 1450 1449 1450 1451 1451 1451 1451 1451 1451 1452 1452 1452 1452 1451 1451 1450 1450 1449 1448 1448 1449 1449 1449 1449 1449 1449 1449 1449 1448 1448 1448 1447 1447 1447 1446 1446 1446 1446 1446 1445 1444 1443 1442 1442 1441
1418 1419 1419 1420 1421 1422 1422 1423 1424 1425 1426 1426 1428 1429 1430 1431 1432 1432 1433 1435 1436 1437 1438 1439 1440 1441 1441 1442 1442 1443 1444 1444 1445 1446 1447 1447 1448 1448 1449 1449 1449 1448 1448 1449 1450 1450 1449 1449 1449 1449 1450 1450 1451 1451 1450 1450 1449 1448 1448 1448 1448 1448 1448 1448 1448 1448 1448 1448 1447 1447 1446 1446 1446 1445 1445 1445 1445 1445 1444 1444 1443 1443 1442 1442 1442